Theta_e
300 300 300 300 300 300 300 300 300 302 302 302 302 302 301 301 302 310 312 310 310 307 306 310 313 315 321 323 326 327 330 331 329 328 326 325 325 324 327 328 329 332 335 336 338
300 300 300 300 300 300 300 302 303 303 303 303 303 303 303 303 304 311 311 308 303 303 310 312 313 315 321 324 326 329 331 330 329 328 327 326 325 325 326 327 329 334 334 333 335
300 300 300 300 300 300 301 303 303 303 303 303 304 304 303 303 313 314 308 306 306 308 311 311 313 314 317 322 324 328 331 330 329 328 327 327 324 324 326 328 330 332 334 333 334
300 300 300 300 300 301 301 302 303 303 304 304 305 304 303 309 314 311 308 308 305 307 310 314 314 315 316 319 323 327 326 328 329 328 328 328 324 324 325 327 327 330 334 333 332
300 300 300 300 301 301 302 302 303 303 303 304 305 305 312 314 311 310 310 312 312 310 310 311 313 316 318 318 319 323 325 326 326 328 328 328 328 326 325 325 326 326 331 333 332
300 300 300 300 301 301 302 302 303 302 303 305 305 307 315 314 310 310 311 311 312 311 311 311 311 314 316 318 319 319 321 322 323 325 326 328 329 328 328 326 326 326 325 328 330
300 300 300 301 301 302 302 302 302 302 303 305 306 309 314 310 310 310 311 311 312 311 311 312 311 311 314 318 317 318 320 320 322 323 324 326 328 329 328 328 328 328 328 329 330
300 301 300 300 301 302 302 302 303 303 303 306 307 312 314 309 309 309 310 310 311 311 311 311 311 311 311 311 314 318 319 320 321 322 323 324 327 328 327 328 329 329 329 330 330
300 301 301 301 301 302 302 303 304 304 305 306 313 315 314 309 309 308 309 309 309 310 310 311 311 312 312 313 313 314 318 320 320 321 322 322 325 326 325 327 328 329 330 330 330
298 300 301 301 301 302 304 307 309 308 308 312 312 313 311 310 309 308 309 309 309 310 311 311 312 315 315 314 313 314 315 317 318 320 321 321 323 324 324 325 328 328 329 329 329
300 298 301 302 301 305 305 313 313 315 312 311 311 310 309 309 309 309 309 309 310 311 313 313 313 315 316 315 315 315 315 315 317 319 320 321 322 323 324 324 324 326 327 328 328
307 300 300 302 301 306 310 311 310 310 311 311 310 309 309 309 309 309 309 309 310 312 312 313 313 314 313 313 313 313 313 315 315 316 319 321 321 322 323 325 324 325 326 327 327
307 304 301 304 301 308 309 310 310 310 312 311 310 310 310 309 310 310 309 309 311 311 311 312 312 312 312 312 312 313 313 313 314 316 317 319 321 322 323 323 322 323 324 325 326
307 304 305 304 307 309 312 310 310 310 315 312 311 311 309 310 311 309 308 309 311 311 311 311 311 311 311 311 312 313 313 313 313 313 315 317 321 322 322 323 324 323 324 324 324
307 304 304 304 311 312 311 310 310 311 319 311 311 309 309 310 310 310 308 308 311 311 310 310 311 311 311 312 313 313 313 313 313 313 314 315 318 319 321 323 323 324 323 323 323
307 305 303 304 310 311 310 310 311 317 317 311 311 311 312 311 311 310 309 309 309 311 312 312 313 313 313 314 314 313 313 314 313 313 314 314 317 318 320 321 322 323 323 323 323
307 305 303 310 313 310 310 311 317 317 312 312 312 312 312 312 311 310 310 310 311 311 312 312 312 313 314 314 315 314 314 314 312 314 313 314 315 317 319 321 322 322 322 322 322
307 306 308 311 312 311 311 314 315 312 311 312 312 312 312 311 311 311 311 311 311 311 312 313 313 312 313 313 314 315 315 313 311 312 313 316 316 316 319 321 321 320 319 321 321
307 312 312 313 312 310 311 316 313 312 309 311 312 313 312 311 311 311 311 310 311 311 311 313 312 312 312 313 313 314 316 314 312 312 313 316 316 318 317 319 320 321 320 321 324
304 312 314 311 312 309 314 314 311 310 309 311 313 312 312 312 312 311 311 311 310 310 310 311 312 311 312 313 314 314 314 318 313 313 312 314 316 317 317 317 320 321 322 322 322
310 311 312 310 309 311 315 312 309 308 308 311 313 312 312 312 312 312 311 311 311 311 311 311 312 312 311 312 314 314 314 315 315 315 314 315 318 318 319 318 319 321 322 322 326
309 313 312 307 312 312 313 308 306 309 310 311 312 311 311 311 312 312 312 311 311 310 310 311 313 313 311 312 313 314 313 313 318 316 315 315 318 318 319 323 319 322 321 321 322
308 309 310 309 315 315 311 310 308 309 311 311 310 310 311 311 312 313 312 311 310 311 311 313 312 314 311 312 314 315 314 312 314 315 318 317 318 318 320 322 321 321 320 320 320
308 311 310 309 309 310 312 312 309 308 309 309 310 310 310 311 311 313 312 311 311 311 311 311 313 312 315 312 312 313 313 314 313 315 314 313 314 316 316 317 320 319 320 318 319
309 310 308 310 310 310 310 312 310 309 309 309 310 310 310 311 311 311 312 312 311 311 311 312 316 313 312 312 311 312 311 311 311 312 313 313 313 313 316 317 318 317 317 316 319
307 307 306 305 309 309 308 311 310 309 309 309 309 309 308 310 310 310 310 311 312 313 312 312 314 313 313 312 312 312 312 312 311 312 312 311 312 312 313 314 315 315 315 316 319
303 303 303 306 308 310 309 308 309 307 307 308 308 309 310 310 309 309 309 310 311 312 313 312 313 313 313 312 312 312 312 312 312 312 312 312 312 313 314 315 316 316 316 316 317
Wind_Speed
11 10 10 10 11 11 11 10 10 11 11 12 11 12 12 12 11 11 8 11 13 14 17 12 13 15 17 26 28 21 16 19 24 22 17 14 16 21 19 23 22 13 19 3 10
11 11 11 11 11 11 10 9 10 12 13 12 11 11 11 11 10 8 9 12 6 6 5 11 16 16 22 21 30 23 18 29 22 20 13 15 18 23 21 18 22 17 10 3 9
11 11 11 12 12 11 9 10 11 12 13 11 11 11 10 8 6 3 2 8 8 5 8 10 13 19 26 27 28 30 28 26 26 28 24 18 21 22 25 19 22 23 20 14 7
13 12 12 12 11 11 9 10 10 12 12 12 13 13 7 2 1 0 11 10 7 7 7 10 13 21 25 25 32 28 37 35 34 35 28 17 23 26 30 26 24 24 23 25 12
15 14 13 12 11 10 9 10 11 12 12 13 15 10 5 3 7 6 11 13 8 6 8 10 14 19 24 24 29 32 29 36 37 33 31 33 24 26 32 32 29 27 20 16 19
16 14 13 12 12 10 10 12 13 15 13 10 7 4 7 0 4 7 9 9 6 7 7 9 13 16 24 25 26 31 32 36 39 36 37 30 31 28 37 30 32 30 32 26 28
17 16 14 13 11 9 10 13 16 17 12 7 2 3 6 5 5 7 8 9 7 7 9 9 10 16 13 17 31 31 27 28 30 31 34 38 29 31 39 36 32 32 34 32 33
19 18 17 15 13 11 11 14 16 13 6 5 2 1 3 2 4 8 9 8 8 11 11 12 12 17 21 24 29 23 21 25 34 27 32 26 34 38 40 39 37 38 38 37 34
19 19 17 16 13 11 12 15 12 9 3 1 3 5 4 3 5 10 8 10 12 11 10 12 12 16 16 16 18 21 25 28 29 29 29 28 35 32 43 41 38 39 41 38 40
21 20 18 17 13 10 11 9 11 7 6 4 7 7 6 5 11 12 10 13 13 13 15 14 15 13 13 12 19 21 26 29 30 29 26 31 35 33 37 35 38 41 39 35 38
23 22 18 16 12 9 11 10 4 5 8 13 11 9 7 10 9 13 8 9 12 12 14 12 12 14 16 17 20 22 25 31 30 25 25 30 31 32 32 36 33 36 31 44 44
27 24 20 15 9 5 8 6 4 6 11 12 11 9 8 7 11 11 6 16 15 14 15 13 16 15 15 18 23 22 25 28 27 28 26 24 27 30 30 28 35 36 39 39 32
27 26 19 12 5 3 4 3 5 8 8 3 5 9 6 7 13 15 10 16 13 15 13 14 16 19 19 20 20 20 22 24 26 24 26 28 29 31 30 32 36 37 39 40 39
28 25 15 6 2 3 1 6 9 7 6 10 7 4 6 10 13 7 12 9 13 15 16 15 17 16 15 18 18 22 20 21 22 20 22 25 24 29 26 29 27 34 33 31 33
27 21 14 3 1 4 5 9 8 2 4 5 5 2 7 10 11 5 6 12 15 17 17 18 19 20 22 22 20 22 19 23 23 22 24 29 21 25 26 26 26 26 36 41 42
25 15 7 5 1 3 8 9 3 7 1 4 1 6 11 12 9 11 12 13 21 17 18 17 16 21 15 17 25 21 21 25 23 20 21 28 26 25 24 25 23 18 25 26 30
24 9 1 3 2 6 8 6 6 6 6 2 6 11 14 11 10 4 12 11 10 10 15 17 15 4 5 14 17 24 21 15 17 17 20 23 27 22 23 27 28 16 20 31 18
21 4 4 3 4 6 6 10 4 4 6 9 10 16 12 7 7 7 11 12 6 7 13 9 16 11 3 11 18 16 21 14 17 16 19 15 23 25 25 26 12 11 26 15 16
13 4 3 5 4 7 12 7 5 10 6 10 14 9 8 4 5 13 8 8 7 9 9 13 11 23 18 9 16 19 15 20 19 24 16 15 25 27 30 23 21 18 18 16 8
16 5 5 6 6 7 10 10 9 2 9 8 13 4 12 14 13 11 10 2 6 11 7 15 20 17 13 10 13 15 12 9 12 21 22 20 18 18 30 29 21 17 4 3 9
9 7 1 2 5 10 6 9 8 6 9 6 11 15 15 15 15 15 16 14 7 10 16 18 15 19 20 14 15 11 15 7 9 14 13 15 12 15 16 30 22 8 5 4 7
8 4 1 4 7 3 7 6 7 9 4 7 10 12 11 11 15 16 18 13 14 14 16 19 7 15 21 23 12 17 15 11 5 9 18 15 17 21 31 28 27 11 2 8 11
12 8 3 4 3 7 11 11 6 9 9 4 7 11 14 15 10 12 16 15 15 16 5 8 6 10 14 7 11 10 19 10 7 11 21 11 10 20 8 16 13 7 6 16 15
8 4 3 2 1 6 10 10 8 2 9 8 9 15 13 15 14 11 18 12 14 15 15 12 15 16 16 22 7 9 16 14 14 12 18 16 20 3 26 23 6 6 8 14 17
4 5 5 5 8 11 11 13 10 11 4 9 7 8 11 12 19 20 18 21 22 22 15 4 8 19 21 22 19 22 19 15 18 20 21 22 20 14 12 20 27 18 12 17 16
9 7 12 17 10 8 3 10 10 8 12 15 17 15 11 17 15 24 22 20 12 13 8 4 7 15 20 21 21 22 21 18 19 21 28 24 23 18 17 24 22 23 20 17 15
7 6 7 10 8 7 5 7 9 12 11 11 18 16 19 19 22 27 28 30 23 12 13 6 6 11 18 19 17 17 19 18 18 21 24 24 21 19 18 15 15 18 17 16 14
Wind_Direction
357 354 352 348 343 338 336 333 334 338 337 331 327 323 318 312 299 313 274 242 232 263 235 249 246 237 230 235 228 231 248 251 250 255 246 249 265 252 241 236 238 231 239 3 121
354 350 349 348 348 345 341 343 344 344 340 332 328 328 324 317 312 282 265 267 259 294 278 255 245 234 229 233 233 225 237 241 250 258 279 260 259 263 240 231 247 216 219 216 193
349 347 346 346 347 344 341 340 344 349 346 348 342 341 332 324 316 81 314 309 303 300 289 266 252 246 235 231 228 239 240 249 249 249 257 264 256 258 265 247 226 231 207 211 189
345 344 343 344 345 341 336 333 338 347 354 353 344 337 340 79 14 300 324 344 342 360 300 261 246 240 242 236 236 232 241 249 258 267 273 246 258 267 267 256 249 242 224 199 186
343 340 340 340 341 338 332 327 335 336 338 345 348 4 92 205 43 330 350 341 350 317 291 267 257 252 248 244 245 243 247 249 252 255 260 265 239 254 255 255 255 252 251 218 217
346 341 338 336 336 334 326 323 327 329 334 351 0 359 343 210 350 339 336 337 318 315 296 274 264 262 276 267 251 256 252 253 254 252 250 249 256 253 252 250 253 248 250 244 235
350 342 336 333 328 322 324 322 322 320 322 350 56 59 302 35 350 342 343 331 313 300 294 295 290 267 266 255 250 260 263 265 261 245 248 254 253 244 252 251 247 242 245 247 249
351 344 339 334 329 323 327 326 323 326 323 341 25 222 298 32 2 348 334 332 320 309 284 283 285 277 267 265 275 278 265 252 243 247 249 245 253 249 247 250 248 247 245 243 240
350 343 337 333 324 321 325 331 336 342 350 42 31 240 187 272 347 331 326 315 314 304 292 278 280 275 268 249 255 246 251 248 257 244 239 235 249 249 252 252 247 242 247 244 244
347 343 336 334 325 326 331 344 332 340 344 304 258 247 211 324 319 322 306 304 303 303 291 248 267 251 245 236 247 255 245 248 254 256 246 231 237 245 249 251 248 254 256 251 243
345 342 336 329 323 334 345 321 293 218 246 289 304 282 293 313 314 322 330 312 296 278 274 287 287 260 276 281 278 280 274 276 277 274 244 251 257 247 241 237 249 254 250 234 245
344 341 335 323 315 341 22 357 5 327 299 274 259 256 275 299 302 320 303 312 306 295 300 277 254 263 261 269 278 279 278 272 275 270 278 272 266 264 260 246 247 246 246 251 247
344 340 338 328 311 343 324 342 331 320 267 155 224 238 261 273 305 300 301 306 285 288 295 295 298 306 289 274 270 271 266 273 280 286 273 266 256 263 264 256 255 252 250 252 252
344 342 342 348 69 313 223 325 327 302 270 135 192 171 246 298 275 300 293 284 283 289 300 290 290 270 274 269 269 271 269 273 276 269 259 254 261 249 246 249 251 250 247 249 253
344 343 341 237 299 317 307 321 308 266 264 114 151 29 268 274 308 285 305 281 278 295 294 291 292 285 278 276 279 275 277 274 267 263 267 254 259 255 245 245 241 241 243 245 245
346 345 12 71 63 315 328 316 303 232 356 166 271 260 293 301 291 282 283 258 258 258 259 277 329 286 308 328 297 288 282 271 262 258 253 252 248 252 246 248 259 257 257 255 250
345 335 245 136 326 316 321 293 245 279 117 113 321 314 311 293 307 300 308 296 300 321 307 314 306 247 248 322 294 256 258 261 253 244 252 250 251 246 256 243 249 263 262 243 256
346 312 227 239 298 312 313 260 303 319 332 358 311 303 275 357 317 301 297 292 308 286 306 334 308 323 314 289 301 283 250 244 261 260 257 317 258 246 248 254 251 261 280 267 256
359 340 244 251 280 316 280 262 319 7 359 322 310 301 330 276 253 292 299 328 318 346 318 305 306 318 301 280 296 276 251 253 268 281 270 273 272 277 240 249 250 252 242 220 260
345 288 215 273 280 296 259 268 293 2 309 303 295 306 315 320 311 320 311 10 279 279 292 294 295 303 294 289 248 251 281 258 239 260 263 267 263 258 204 231 217 229 167 262 266
350 280 175 308 282 252 274 312 332 327 312 300 316 308 305 314 307 309 303 309 331 329 310 301 297 290 292 264 279 249 246 189 262 231 271 269 277 350 236 203 217 200 108 313 303
345 280 340 345 260 218 266 8 315 286 269 268 286 304 299 317 308 300 297 309 310 324 311 305 289 286 279 283 219 262 266 313 233 286 264 275 284 306 298 185 199 109 84 333 331
322 293 305 336 310 327 316 309 271 289 292 308 279 294 301 300 298 281 295 308 309 313 324 357 284 305 292 247 32 354 311 280 282 269 264 270 276 314 324 104 115 120 17 337 339
310 300 180 354 206 304 325 310 314 287 290 293 308 295 289 291 296 277 290 302 297 288 286 294 261 257 269 288 244 237 233 254 275 264 276 262 258 290 308 309 185 60 30 329 321
312 38 357 306 335 327 301 299 294 297 264 277 286 298 303 302 303 295 301 314 309 299 282 210 266 273 272 277 278 278 283 271 266 269 267 283 284 282 240 283 301 327 316 319 315
335 347 333 293 287 284 295 301 312 327 326 308 293 308 307 282 282 291 295 295 293 299 299 242 275 289 288 280 267 264 262 257 259 268 273 274 278 277 263 266 278 282 292 296 306
345 322 319 297 295 289 331 314 310 325 297 291 316 306 289 293 301 294 285 276 269 244 270 261 280 288 280 276 286 270 271 266 261 262 260 266 272 274 277 279 283 290 282 280 284